Weather History for Lethbridge, AB

Change the Weather History Date:

Saturday, August 31, 2013

  Actual Average Record
Temperature  
Mean Temperature 60 °F -  
Max Temperature 76 °F - - ()
Min Temperature 45 °F - - ()
Degree Days  
Heating Degree Days 4    
Growing Degree Days 10 (Base 50)    
Moisture  
Dew Point 42 °F    
Average Humidity 51    
Maximum Humidity 81    
Minimum Humidity 18    
Precipitation  
Precipitation 0.00 in - - ()
Sea Level Pressure  
Sea Level Pressure 30.06 in    
Wind  
Wind Speed 6 mph ()    
Max Wind Speed 9 mph    
Max Gust Speed -    
T = Trace of Precipitation, MM = Missing Value Source: Averaged Metar Reports

Daily Weather History Graph

Daily Weather History Graph

Search for Another Location

Airport:

Trip Planner

Search our weather history database for the weather conditions in past years. The results will help you decide how hot, cold, wet, or windy it might be!

Date:

Astronomy

Aug. 31, 2013 Rise Set
Actual Time 6:45 AM MDT 8:15 PM MDT
Civil Twilight 6:12 AM MDT 8:49 PM MDT
Nautical Twilight 5:31 AM MDT 9:29 PM MDT
Astronomical Twilight 4:46 AM MDT 10:14 PM MDT
Moon 2:01 AM MDT (8/31) 5:31 PM MDT (8/31)
Length of Visible Light 14h 37m
Length of Day
13h 30m
Waning Crescent, 20% of the Moon is Illuminated
Aug 31
Waning Crescent
Sep 5
New
Sep 12
First Quarter
Sep 19
Full
Sep 26
Last Quarter

Hourly Weather History & Observations

Time (MDT) Temp. Windchill Dew Point Humidity Pressure Visibility Wind Dir Wind Speed Gust Speed Precip Events Conditions
12:00 AM 59.4 °F - 44.2 °F 57% 29.97 in - NNW 8.1 mph - N/A   Unknown
1:00 AM 55.2 °F - 43.5 °F 65% 29.99 in - NW 4.6 mph - N/A   Unknown
2:00 AM 50.7 °F - 42.6 °F 74% 30.02 in - SSW 5.8 mph - N/A   Unknown
3:00 AM 46.2 °F 43.3 °F 40.6 °F 81% 30.04 in - SW 5.8 mph - N/A   Unknown
4:00 AM 49.3 °F - 42.8 °F 78% 30.04 in - WSW 5.8 mph - N/A   Unknown
5:00 AM 48.4 °F - 41.5 °F 77% 30.05 in - West 4.6 mph - N/A   Unknown
6:00 AM 50 °F - 43 °F 69% 30.06 in - NW 6.9 mph - -  
6:00 AM 49.8 °F - 43.0 °F 77% 30.06 in - WNW 5.8 mph - N/A   Unknown
7:00 AM 49.1 °F - 42.6 °F 78% 30.09 in - WNW 6.9 mph - N/A   Unknown
8:00 AM 52.9 °F - 42.6 °F 68% 30.10 in - West 5.8 mph - N/A   Unknown
9:00 AM 57.7 °F - 43.7 °F 60% 30.11 in - West 8.1 mph - N/A   Unknown
10:00 AM 63.1 °F - 44.8 °F 51% 30.11 in - West 8.1 mph - N/A   Unknown
11:00 AM 66.9 °F - 45.1 °F 45% 30.10 in - NNW 9.2 mph - N/A   Unknown
12:00 PM 70 °F - 43 °F 26% 30.10 in - NW 6.9 mph - -  
12:00 PM 70.2 °F - 42.6 °F 37% 30.10 in - NNW 6.9 mph - N/A   Unknown
1:00 PM 72.1 °F - 43.7 °F 36% 30.09 in - NW 9.2 mph - N/A   Unknown
2:00 PM 73.0 °F - 41.2 °F 32% 30.09 in - NW 5.8 mph - N/A   Unknown
3:00 PM 74.8 °F - 40.6 °F 29% 30.08 in - SW 6.9 mph - N/A   Unknown
4:00 PM 75.4 °F - 39.9 °F 28% 30.06 in - NW 6.9 mph - N/A   Unknown
5:00 PM 75.4 °F - 40.3 °F 28% 30.05 in - SE 3.5 mph - N/A   Unknown
6:00 PM 75 °F - 40 °F 18% 30.03 in - ENE 5.8 mph - -  
6:00 PM 75.0 °F - 39.9 °F 28% 30.03 in - ENE 5.8 mph - N/A   Unknown
7:00 PM 74.1 °F - 40.3 °F 29% 30.02 in - East 6.9 mph - N/A   Unknown
8:00 PM 68.5 °F - 43.9 °F 41% 30.02 in - East 4.6 mph - N/A   Unknown
9:00 PM 62.8 °F - 44.2 °F 51% 30.03 in - East 4.6 mph - N/A   Unknown
10:00 PM 57.9 °F - 43.2 °F 58% 30.03 in - SE 4.6 mph - N/A   Unknown
11:00 PM 56.3 °F - 43.9 °F 63% 30.02 in - South 3.5 mph - N/A   Unknown